Location: Nasgenstadt
(48.2786°N, 9.7553°E)
Time: 22:10:20
(UTC+02:00)

STARLINK-2733 - Pass Details

Date: 01 August 2021
Orbit: 546 x 548 km, 53.1° (Epoch: 20 September)

Event Time Altitude Azimuth Distance (km) Brightness Sun altitude
Rises 21:46:33 0° 289° (WNW) 2,719 8.8 -7.7°
Reaches altitude 10° 21:49:19 10° 271° (W) 1,821 7.1 -8.0°
Maximum altitude 21:52:08 18° 228° (SW) 1,381 5.8 -8.4°
Drops below altitude 10° 21:55:01 10° 184° (S) 1,828 5.9 -8.8°
Enters shadow 21:56:28 - 172° (S) 2,270 6.3 -9.0°
